Location: Chippewa Lake
(41.0698°N, 81.9010°W)
Time: 00:08:40
(UTC+00:00)

Meteor 1-24 Rocket - Pass Details

Date: 09 May 2021
Orbit: 791 x 927 km, 81.2° (Epoch: 24 June)

Event Time Altitude Azimuth Distance (km) Brightness Sun altitude
Exits shadow 08:46:33 - 181° (S) 2,678 5.9 -15.0°
Reaches altitude 10° 08:47:00 10° 180° (S) 2,503 5.8 -15.0°
Maximum altitude 08:52:39 73° 97° (E) 882 3.9 -14.1°
Drops below altitude 10° 08:58:08 10° 14° (NNE) 2,430 6.9 -13.3°
Sets 09:00:30 0° 12° (NNE) 3,349 7.7 -13.0°
